Time,TemperatureF,DewpointF,PressureIn,WindDirection,WindDirectionDegrees,WindSpeedMPH,WindSpeedGustMPH,Humidity,HourlyPrecipIn,Conditions,Clouds,dailyrainin,SoftwareType,DateUTC
2013-07-03 00:00:00,63.1,55.4,29.90,WNW,303,0.0,0.0,76,0.00,,,0.00,Wunderground v.1.15,2013-07-03 07:00:00,
2013-07-03 00:05:00,62.5,55.2,29.90,WNW,289,0.0,0.0,77,0.00,,,0.00,Wunderground v.1.15,2013-07-03 07:05:00,
2013-07-03 00:10:00,62.0,55.1,29.90,WNW,302,0.0,0.0,78,0.00,,,0.00,Wunderground v.1.15,2013-07-03 07:10:00,
2013-07-03 00:15:00,61.4,55.2,29.89,West,279,0.0,0.0,80,0.00,,,0.00,Wunderground v.1.15,2013-07-03 07:15:00,
2013-07-03 00:20:00,61.1,55.2,29.89,WSW,244,0.0,0.0,81,0.00,,,0.00,Wunderground v.1.15,2013-07-03 07:20:00,
2013-07-03 00:25:00,61.0,55.1,29.89,NW,323,0.0,0.0,81,0.00,,,0.00,Wunderground v.1.15,2013-07-03 07:25:00,
2013-07-03 00:45:00,60.7,55.2,29.89,NNE,22,0.0,0.0,82,0.00,,,0.00,Wunderground v.1.15,2013-07-03 07:45:00,
2013-07-03 00:55:00,60.7,55.2,29.89,NNE,22,0.0,0.0,82,0.00,,,0.00,Wunderground v.1.15,2013-07-03 07:55:00,
2013-07-03 01:00:00,60.7,55.5,29.88,NNE,22,0.0,0.0,83,0.00,,,0.00,Wunderground v.1.15,2013-07-03 08:00:00,
2013-07-03 01:05:00,60.8,55.6,29.88,NNE,22,0.0,0.0,83,0.00,,,0.00,Wunderground v.1.15,2013-07-03 08:05:00,
2013-07-03 01:10:00,60.9,55.4,29.88,NNE,22,0.0,0.0,82,0.00,,,0.00,Wunderground v.1.15,2013-07-03 08:10:00,
2013-07-03 01:15:00,61.0,55.5,29.88,NNE,22,0.0,0.0,82,0.00,,,0.00,Wunderground v.1.15,2013-07-03 08:15:00,
2013-07-03 01:20:00,61.2,55.7,29.88,NNE,22,0.0,0.0,82,0.00,,,0.00,Wunderground v.1.15,2013-07-03 08:20:00,
2013-07-03 01:30:00,61.3,55.4,29.88,NNE,22,0.0,0.0,81,0.00,,,0.00,Wunderground v.1.15,2013-07-03 08:30:00,
2013-07-03 01:35:00,61.2,55.3,29.88,NNE,22,0.0,0.0,81,0.00,,,0.00,Wunderground v.1.15,2013-07-03 08:35:00,
2013-07-03 01:45:00,60.8,55.3,29.87,NNE,22,0.0,0.0,82,0.00,,,0.00,Wunderground v.1.15,2013-07-03 08:45:00,
2013-07-03 01:55:00,60.2,55.0,29.87,NNE,22,0.0,0.0,83,0.00,,,0.00,Wunderground v.1.15,2013-07-03 08:55:00,
2013-07-03 02:00:00,60.0,55.2,29.87,NNE,22,0.0,0.0,84,0.00,,,0.00,Wunderground v.1.15,2013-07-03 09:00:00,
2013-07-03 02:10:00,59.7,55.2,29.87,NNE,22,0.0,0.0,85,0.00,,,0.00,Wunderground v.1.15,2013-07-03 09:10:00,
2013-07-03 02:20:00,59.5,55.3,29.87,NNE,22,0.0,0.0,86,0.00,,,0.00,Wunderground v.1.15,2013-07-03 09:20:00,
2013-07-03 02:25:00,59.4,55.2,29.88,NNE,22,0.0,0.0,86,0.00,,,0.00,Wunderground v.1.15,2013-07-03 09:25:00,
2013-07-03 02:30:00,59.3,55.1,29.88,NNE,22,0.0,0.0,86,0.00,,,0.00,Wunderground v.1.15,2013-07-03 09:30:00,
2013-07-03 02:35:00,59.2,55.0,29.88,NNE,22,0.0,0.0,86,0.00,,,0.00,Wunderground v.1.15,2013-07-03 09:35:00,
2013-07-03 02:45:00,59.0,54.8,29.87,NNE,22,0.0,0.0,86,0.00,,,0.00,Wunderground v.1.15,2013-07-03 09:45:00,
2013-07-03 02:55:00,58.7,54.8,29.87,NNE,22,0.0,0.0,87,0.00,,,0.00,Wunderground v.1.15,2013-07-03 09:55:00,
2013-07-03 03:00:00,58.6,55.1,29.87,NNE,22,0.0,0.0,88,0.00,,,0.00,Wunderground v.1.15,2013-07-03 10:00:00,
2013-07-03 03:05:00,58.4,54.9,29.87,NNE,22,0.0,0.0,88,0.00,,,0.00,Wunderground v.1.15,2013-07-03 10:05:00,
2013-07-03 03:10:00,58.3,54.8,29.87,NNE,22,0.0,0.0,88,0.00,,,0.00,Wunderground v.1.15,2013-07-03 10:10:00,
2013-07-03 03:20:00,58.1,54.9,29.87,West,260,0.0,0.0,89,0.00,,,0.00,Wunderground v.1.15,2013-07-03 10:20:00,
2013-07-03 03:25:00,58.0,55.1,29.87,West,260,0.0,0.0,90,0.00,,,0.00,Wunderground v.1.15,2013-07-03 10:25:00,
2013-07-03 03:30:00,57.9,55.0,29.87,West,260,0.0,0.0,90,0.00,,,0.00,Wunderground v.1.15,2013-07-03 10:30:00,
2013-07-03 03:35:00,57.8,54.9,29.87,West,260,0.0,0.0,90,0.00,,,0.00,Wunderground v.1.15,2013-07-03 10:35:00,
2013-07-03 03:40:00,57.8,55.2,29.87,West,260,0.0,0.0,91,0.00,,,0.00,Wunderground v.1.15,2013-07-03 10:40:00,
2013-07-03 03:45:00,57.7,55.1,29.87,West,260,0.0,0.0,91,0.00,,,0.00,Wunderground v.1.15,2013-07-03 10:45:00,
2013-07-03 03:50:00,57.8,55.2,29.87,West,260,0.0,0.0,91,0.00,,,0.00,Wunderground v.1.15,2013-07-03 10:50:00,
2013-07-03 03:55:00,57.7,55.1,29.87,West,260,0.0,0.0,91,0.00,,,0.00,Wunderground v.1.15,2013-07-03 10:55:00,
2013-07-03 04:00:00,57.7,55.1,29.87,West,260,0.0,0.0,91,0.00,,,0.00,Wunderground v.1.15,2013-07-03 11:00:00,
2013-07-03 04:05:00,57.7,55.1,29.87,West,263,0.0,0.0,91,0.00,,,0.00,Wunderground v.1.15,2013-07-03 11:05:00,
2013-07-03 04:10:00,57.7,55.1,29.87,West,265,0.0,0.0,91,0.00,,,0.00,Wunderground v.1.15,2013-07-03 11:10:00,
2013-07-03 04:25:00,57.6,55.0,29.87,West,265,0.0,0.0,91,0.00,,,0.00,Wunderground v.1.15,2013-07-03 11:25:00,
2013-07-03 04:30:00,57.5,55.2,29.87,West,265,0.0,0.0,92,0.00,,,0.00,Wunderground v.1.15,2013-07-03 11:30:00,
2013-07-03 04:40:00,57.4,55.1,29.87,West,265,0.0,0.0,92,0.00,,,0.00,Wunderground v.1.15,2013-07-03 11:40:00,
2013-07-03 04:45:00,57.3,55.0,29.87,West,265,0.0,0.0,92,0.00,,,0.00,Wunderground v.1.15,2013-07-03 11:45:00,
2013-07-03 04:50:00,57.3,55.0,29.87,West,265,0.0,0.0,92,0.00,,,0.00,Wunderground v.1.15,2013-07-03 11:50:00,
2013-07-03 04:55:00,57.3,55.0,29.87,West,265,0.0,0.0,92,0.00,,,0.00,Wunderground v.1.15,2013-07-03 11:55:00,
2013-07-03 05:05:00,57.4,55.1,29.87,West,265,0.0,1.0,92,0.00,,,0.00,Wunderground v.1.15,2013-07-03 12:05:00,
2013-07-03 05:10:00,57.7,55.7,29.87,West,265,0.0,0.0,93,0.00,,,0.00,Wunderground v.1.15,2013-07-03 12:10:00,
2013-07-03 05:20:00,58.2,55.6,29.87,West,265,0.0,0.0,91,0.00,,,0.00,Wunderground v.1.15,2013-07-03 12:20:00,
2013-07-03 05:25:00,58.3,55.7,29.87,West,265,0.0,0.0,91,0.00,,,0.00,Wunderground v.1.15,2013-07-03 12:25:00,
2013-07-03 05:35:00,58.2,55.3,29.87,West,265,0.0,0.0,90,0.00,,,0.00,Wunderground v.1.15,2013-07-03 12:35:00,
2013-07-03 05:40:00,58.1,55.2,29.87,West,265,0.0,0.0,90,0.00,,,0.00,Wunderground v.1.15,2013-07-03 12:40:00,
2013-07-03 05:45:00,58.0,55.4,29.87,West,265,0.0,0.0,91,0.00,,,0.00,Wunderground v.1.15,2013-07-03 12:45:00,
2013-07-03 05:50:00,57.8,55.2,29.87,West,265,0.0,0.0,91,0.00,,,0.00,Wunderground v.1.15,2013-07-03 12:50:00,
2013-07-03 05:55:00,57.7,55.1,29.87,West,265,0.0,0.0,91,0.00,,,0.00,Wunderground v.1.15,2013-07-03 12:55:00,
2013-07-03 06:05:00,57.6,55.0,29.88,West,265,0.0,0.0,91,0.00,,,0.00,Wunderground v.1.15,2013-07-03 13:05:00,
2013-07-03 06:10:00,57.7,55.4,29.88,West,265,0.0,0.0,92,0.00,,,0.00,Wunderground v.1.15,2013-07-03 13:10:00,
2013-07-03 06:15:00,57.7,55.4,29.88,West,265,0.0,0.0,92,0.00,,,0.00,Wunderground v.1.15,2013-07-03 13:15:00,
2013-07-03 06:25:00,57.7,55.4,29.88,West,265,0.0,0.0,92,0.00,,,0.00,Wunderground v.1.15,2013-07-03 13:25:00,
2013-07-03 06:30:00,57.8,55.5,29.88,NNW,333,0.0,0.0,92,0.00,,,0.00,Wunderground v.1.15,2013-07-03 13:30:00,
2013-07-03 06:35:00,58.2,55.9,29.88,NNW,333,0.0,0.0,92,0.00,,,0.00,Wunderground v.1.15,2013-07-03 13:35:00,
2013-07-03 06:40:00,58.5,55.9,29.88,NW,325,0.0,0.0,91,0.00,,,0.00,Wunderground v.1.15,2013-07-03 13:40:00,
2013-07-03 06:45:00,58.6,56.0,29.88,NW,325,0.0,0.0,91,0.00,,,0.00,Wunderground v.1.15,2013-07-03 13:45:00,
2013-07-03 06:50:00,58.8,56.2,29.88,NW,325,0.0,0.0,91,0.00,,,0.00,Wunderground v.1.15,2013-07-03 13:50:00,
2013-07-03 07:00:00,59.3,56.4,29.88,NNW,327,0.0,0.0,90,0.00,,,0.00,Wunderground v.1.15,2013-07-03 14:00:00,
2013-07-03 07:05:00,59.7,56.5,29.88,NNW,327,0.0,0.0,89,0.00,,,0.00,Wunderground v.1.15,2013-07-03 14:05:00,
2013-07-03 07:10:00,60.0,56.7,29.88,NW,318,0.0,1.0,89,0.00,,,0.00,Wunderground v.1.15,2013-07-03 14:10:00,
2013-07-03 07:20:00,60.3,56.7,29.89,West,266,1.0,2.0,88,0.00,,,0.00,Wunderground v.1.15,2013-07-03 14:20:00,
2013-07-03 07:25:00,60.6,57.0,29.89,West,261,1.0,2.0,88,0.00,,,0.00,Wunderground v.1.15,2013-07-03 14:25:00,
2013-07-03 07:30:00,60.8,57.2,29.89,West,279,1.0,1.0,88,0.00,,,0.00,Wunderground v.1.15,2013-07-03 14:30:00,
2013-07-03 07:35:00,61.3,57.4,29.89,West,279,0.0,1.0,87,0.00,,,0.00,Wunderground v.1.15,2013-07-03 14:35:00,
2013-07-03 07:45:00,61.6,57.7,29.89,WSW,257,0.0,0.0,87,0.00,,,0.00,Wunderground v.1.15,2013-07-03 14:45:00,
2013-07-03 07:50:00,62.2,57.6,29.88,WNW,296,0.0,0.0,85,0.00,,,0.00,Wunderground v.1.15,2013-07-03 14:50:00,
2013-07-03 08:05:00,63.0,58.1,29.88,WNW,296,0.0,0.0,84,0.00,,,0.00,Wunderground v.1.15,2013-07-03 15:05:00,
2013-07-03 08:10:00,63.5,58.2,29.88,WNW,296,0.0,0.0,83,0.00,,,0.00,Wunderground v.1.15,2013-07-03 15:10:00,
2013-07-03 08:25:00,65.8,59.1,29.88,WNW,296,0.0,0.0,79,0.00,,,0.00,Wunderground v.1.15,2013-07-03 15:25:00,
2013-07-03 08:30:00,66.4,59.3,29.88,WNW,296,0.0,0.0,78,0.00,,,0.00,Wunderground v.1.15,2013-07-03 15:30:00,
2013-07-03 08:35:00,67.2,59.7,29.88,WNW,296,0.0,1.0,77,0.00,,,0.00,Wunderground v.1.15,2013-07-03 15:35:00,
2013-07-03 08:40:00,67.9,60.1,29.88,WNW,296,0.0,0.0,76,0.00,,,0.00,Wunderground v.1.15,2013-07-03 15:40:00,
2013-07-03 08:45:00,68.4,60.2,29.88,WNW,296,0.0,0.0,75,0.00,,,0.00,Wunderground v.1.15,2013-07-03 15:45:00,
2013-07-03 09:00:00,69.7,60.7,29.88,WNW,296,0.0,0.0,73,0.00,,,0.00,Wunderground v.1.15,2013-07-03 16:00:00,
2013-07-03 09:05:00,70.1,61.0,29.88,WNW,296,0.0,0.0,73,0.00,,,0.00,Wunderground v.1.15,2013-07-03 16:05:00,
2013-07-03 09:10:00,70.7,61.2,29.87,WNW,296,0.0,1.0,72,0.00,,,0.00,Wunderground v.1.15,2013-07-03 16:10:00,
2013-07-03 09:15:00,71.3,61.0,29.87,WNW,289,1.0,2.0,70,0.00,,,0.00,Wunderground v.1.15,2013-07-03 16:15:00,
2013-07-03 09:20:00,71.7,61.0,29.87,West,263,1.0,1.0,69,0.00,,,0.00,Wunderground v.1.15,2013-07-03 16:20:00,
2013-07-03 09:35:00,73.5,61.9,29.87,WSW,247,1.0,1.0,67,0.00,,,0.00,Wunderground v.1.15,2013-07-03 16:35:00,
2013-07-03 09:40:00,74.0,61.9,29.88,WSW,250,1.0,1.0,66,0.00,,,0.00,Wunderground v.1.15,2013-07-03 16:40:00,
2013-07-03 09:45:00,74.2,61.7,29.87,WSW,252,1.0,3.0,65,0.00,,,0.00,Wunderground v.1.15,2013-07-03 16:45:00,
2013-07-03 09:50:00,74.5,61.5,29.87,WSW,255,2.0,2.0,64,0.00,,,0.00,Wunderground v.1.15,2013-07-03 16:50:00,
2013-07-03 09:55:00,75.0,62.0,29.88,West,271,2.0,2.0,64,0.00,,,0.00,Wunderground v.1.15,2013-07-03 16:55:00,
2013-07-03 10:00:00,75.7,62.7,29.88,SW,227,1.0,1.0,64,0.00,,,0.00,Wunderground v.1.15,2013-07-03 17:00:00,
2013-07-03 10:05:00,75.9,62.4,29.88,West,264,1.0,2.0,63,0.00,,,0.00,Wunderground v.1.15,2013-07-03 17:05:00,
2013-07-03 10:15:00,76.6,61.2,29.88,WNW,282,1.0,4.0,59,0.00,,,0.00,Wunderground v.1.15,2013-07-03 17:15:00,
2013-07-03 10:20:00,76.7,61.8,29.88,West,268,2.0,2.0,60,0.00,,,0.00,Wunderground v.1.15,2013-07-03 17:20:00,
2013-07-03 10:25:00,77.2,61.3,29.88,WNW,286,2.0,4.0,58,0.00,,,0.00,Wunderground v.1.15,2013-07-03 17:25:00,
2013-07-03 10:30:00,77.5,61.6,29.88,NW,318,2.0,2.0,58,0.00,,,0.00,Wunderground v.1.15,2013-07-03 17:30:00,
2013-07-03 10:40:00,78.9,62.9,29.88,NNW,333,1.0,1.0,58,0.00,,,0.00,Wunderground v.1.15,2013-07-03 17:40:00,
2013-07-03 10:45:00,80.0,62.4,29.88,WSW,252,0.0,1.0,55,0.00,,,0.00,Wunderground v.1.15,2013-07-03 17:45:00,
2013-07-03 10:50:00,81.0,62.8,29.87,WNW,298,1.0,2.0,54,0.00,,,0.00,Wunderground v.1.15,2013-07-03 17:50:00,
2013-07-03 10:55:00,81.5,62.7,29.87,NW,323,1.0,2.0,53,0.00,,,0.00,Wunderground v.1.15,2013-07-03 17:55:00,
2013-07-03 11:00:00,82.2,63.4,29.87,SW,227,1.0,1.0,53,0.00,,,0.00,Wunderground v.1.15,2013-07-03 18:00:00,
2013-07-03 11:05:00,83.3,63.3,29.87,SSW,194,0.0,1.0,51,0.00,,,0.00,Wunderground v.1.15,2013-07-03 18:05:00,
2013-07-03 11:15:00,84.5,62.7,29.87,NW,321,1.0,1.0,48,0.00,,,0.00,Wunderground v.1.15,2013-07-03 18:15:00,
2013-07-03 11:20:00,84.5,63.2,29.87,WNW,290,1.0,1.0,49,0.00,,,0.00,Wunderground v.1.15,2013-07-03 18:20:00,
2013-07-03 11:30:00,85.7,63.8,29.86,WSW,253,1.0,2.0,48,0.00,,,0.00,Wunderground v.1.15,2013-07-03 18:30:00,
2013-07-03 11:35:00,86.4,63.2,29.86,WSW,242,0.0,2.0,46,0.00,,,0.00,Wunderground v.1.15,2013-07-03 18:35:00,
2013-07-03 11:40:00,87.2,63.9,29.86,SSW,203,0.0,1.0,46,0.00,,,0.00,Wunderground v.1.15,2013-07-03 18:40:00,
2013-07-03 11:45:00,87.9,64.5,29.86,SSW,199,1.0,1.0,46,0.00,,,0.00,Wunderground v.1.15,2013-07-03 18:45:00,
2013-07-03 11:50:00,88.4,64.4,29.86,WSW,237,1.0,1.0,45,0.00,,,0.00,Wunderground v.1.15,2013-07-03 18:50:00,
2013-07-03 12:00:00,89.4,64.0,29.86,West,272,1.0,1.0,43,0.00,,,0.00,Wunderground v.1.15,2013-07-03 19:00:00,
2013-07-03 12:05:00,89.9,63.0,29.86,WNW,291,1.0,1.0,41,0.00,,,0.00,Wunderground v.1.15,2013-07-03 19:05:00,
2013-07-03 12:15:00,89.1,61.6,29.86,NW,312,2.0,2.0,40,0.00,,,0.00,Wunderground v.1.15,2013-07-03 19:15:00,
2013-07-03 12:25:00,89.8,61.5,29.85,SW,232,1.0,1.0,39,0.00,,,0.00,Wunderground v.1.15,2013-07-03 19:25:00,
2013-07-03 12:30:00,90.5,60.7,29.85,West,267,1.0,3.0,37,0.00,,,0.00,Wunderground v.1.15,2013-07-03 19:30:00,
2013-07-03 12:35:00,90.2,60.4,29.85,WSW,256,2.0,3.0,37,0.00,,,0.00,Wunderground v.1.15,2013-07-03 19:35:00,
2013-07-03 12:50:00,91.7,61.0,29.85,WSW,254,1.0,1.0,36,0.00,,,0.00,Wunderground v.1.15,2013-07-03 19:50:00,
2013-07-03 12:55:00,92.1,61.3,29.85,SE,142,1.0,1.0,36,0.00,,,0.00,Wunderground v.1.15,2013-07-03 19:55:00,
2013-07-03 13:00:00,93.3,61.6,29.85,SE,143,1.0,2.0,35,0.00,,,0.00,Wunderground v.1.15,2013-07-03 20:00:00,
2013-07-03 13:05:00,93.5,60.9,29.84,South,178,1.0,2.0,34,0.00,,,0.00,Wunderground v.1.15,2013-07-03 20:05:00,
2013-07-03 13:10:00,94.0,61.4,29.84,NW,316,1.0,1.0,34,0.00,,,0.00,Wunderground v.1.15,2013-07-03 20:10:00,
2013-07-03 13:20:00,94.6,61.0,29.84,South,186,1.0,2.0,33,0.00,,,0.00,Wunderground v.1.15,2013-07-03 20:20:00,
2013-07-03 13:25:00,95.4,61.7,29.84,WSW,254,1.0,2.0,33,0.00,,,0.00,Wunderground v.1.15,2013-07-03 20:25:00,
2013-07-03 13:35:00,95.2,59.8,29.84,NNW,344,1.0,2.0,31,0.00,,,0.00,Wunderground v.1.15,2013-07-03 20:35:00,
2013-07-03 13:40:00,94.7,60.3,29.83,West,272,1.0,1.0,32,0.00,,,0.00,Wunderground v.1.15,2013-07-03 20:40:00,
2013-07-03 13:45:00,94.9,60.4,29.83,WSW,248,1.0,1.0,32,0.00,,,0.00,Wunderground v.1.15,2013-07-03 20:45:00,
2013-07-03 13:50:00,95.2,60.7,29.83,West,259,2.0,2.0,32,0.00,,,0.00,Wunderground v.1.15,2013-07-03 20:50:00,
2013-07-03 13:55:00,95.6,60.1,29.83,West,264,1.0,2.0,31,0.00,,,0.00,Wunderground v.1.15,2013-07-03 20:55:00,
2013-07-03 14:00:00,96.3,59.8,29.83,NW,325,1.0,1.0,30,0.00,,,0.00,Wunderground v.1.15,2013-07-03 21:00:00,
2013-07-03 14:05:00,96.8,61.2,29.83,SSE,163,0.0,2.0,31,0.00,,,0.00,Wunderground v.1.15,2013-07-03 21:05:00,
2013-07-03 14:15:00,96.2,58.8,29.83,WNW,290,2.0,2.0,29,0.00,,,0.00,Wunderground v.1.15,2013-07-03 21:15:00,
2013-07-03 14:20:00,94.6,58.4,29.82,WNW,295,2.0,2.0,30,0.00,,,0.00,Wunderground v.1.15,2013-07-03 21:20:00,
2013-07-03 14:30:00,95.0,58.7,29.82,NW,320,1.0,4.0,30,0.00,,,0.00,Wunderground v.1.15,2013-07-03 21:30:00,
2013-07-03 14:35:00,94.8,58.5,29.82,NW,311,1.0,4.0,30,0.00,,,0.00,Wunderground v.1.15,2013-07-03 21:35:00,
2013-07-03 14:40:00,95.3,59.0,29.82,NW,304,1.0,1.0,30,0.00,,,0.00,Wunderground v.1.15,2013-07-03 21:40:00,
2013-07-03 14:45:00,96.3,58.9,29.82,SSE,167,1.0,1.0,29,0.00,,,0.00,Wunderground v.1.15,2013-07-03 21:45:00,
2013-07-03 14:55:00,97.2,58.7,29.81,WSW,242,1.0,1.0,28,0.00,,,0.00,Wunderground v.1.15,2013-07-03 21:55:00,
2013-07-03 15:05:00,97.2,59.6,29.81,NNW,333,1.0,2.0,29,0.00,,,0.00,Wunderground v.1.15,2013-07-03 22:05:00,
2013-07-03 15:10:00,96.4,59.0,29.81,WSW,246,2.0,2.0,29,0.00,,,0.00,Wunderground v.1.15,2013-07-03 22:10:00,
2013-07-03 15:25:00,96.2,59.7,29.80,WNW,301,1.0,2.0,30,0.00,,,0.00,Wunderground v.1.15,2013-07-03 22:25:00,
2013-07-03 15:35:00,95.7,61.1,29.79,WSW,241,2.0,2.0,32,0.00,,,0.00,Wunderground v.1.15,2013-07-03 22:35:00,
2013-07-03 15:45:00,96.3,60.7,29.79,WNW,291,2.0,2.0,31,0.00,,,0.00,Wunderground v.1.15,2013-07-03 22:45:00,
2013-07-03 15:55:00,96.1,60.6,29.78,WNW,302,2.0,5.0,31,0.00,,,0.00,Wunderground v.1.15,2013-07-03 22:55:00,
2013-07-03 16:10:00,95.3,60.8,29.78,WSW,239,2.0,2.0,32,0.00,,,0.00,Wunderground v.1.15,2013-07-03 23:10:00,
2013-07-03 16:15:00,95.4,60.9,29.78,North,355,1.0,2.0,32,0.00,,,0.00,Wunderground v.1.15,2013-07-03 23:15:00,
2013-07-03 16:20:00,95.8,59.4,29.78,WSW,252,1.0,1.0,30,0.00,,,0.00,Wunderground v.1.15,2013-07-03 23:20:00,
2013-07-03 16:30:00,95.5,59.1,29.78,WSW,258,1.0,1.0,30,0.00,,,0.00,Wunderground v.1.15,2013-07-03 23:30:00,
2013-07-03 16:35:00,95.6,59.2,29.78,WSW,254,1.0,1.0,30,0.00,,,0.00,Wunderground v.1.15,2013-07-03 23:35:00,
2013-07-03 16:40:00,96.0,59.6,29.78,West,268,1.0,1.0,30,0.00,,,0.00,Wunderground v.1.15,2013-07-03 23:40:00,
2013-07-03 16:45:00,95.9,58.5,29.78,West,263,1.0,1.0,29,0.00,,,0.00,Wunderground v.1.15,2013-07-03 23:45:00,
2013-07-03 16:50:00,95.6,59.2,29.77,SSE,162,1.0,1.0,30,0.00,,,0.00,Wunderground v.1.15,2013-07-03 23:50:00,
2013-07-03 17:00:00,94.7,59.4,29.77,WSW,241,1.0,1.0,31,0.00,,,0.00,Wunderground v.1.15,2013-07-04 00:00:00,
2013-07-03 17:05:00,95.0,59.6,29.77,WSW,248,1.0,4.0,31,0.00,,,0.00,Wunderground v.1.15,2013-07-04 00:05:00,
2013-07-03 17:10:00,95.2,59.8,29.77,WSW,242,1.0,1.0,31,0.00,,,0.00,Wunderground v.1.15,2013-07-04 00:10:00,
2013-07-03 17:15:00,95.1,58.8,29.77,WSW,248,1.0,1.0,30,0.00,,,0.00,Wunderground v.1.15,2013-07-04 00:15:00,
2013-07-03 17:20:00,94.5,59.2,29.77,West,266,1.0,1.0,31,0.00,,,0.00,Wunderground v.1.15,2013-07-04 00:20:00,
2013-07-03 17:30:00,93.1,58.0,29.77,NW,321,1.0,3.0,31,0.00,,,0.00,Wunderground v.1.15,2013-07-04 00:30:00,
2013-07-03 17:35:00,90.5,56.6,29.77,NW,322,3.0,4.0,32,0.00,,,0.00,Wunderground v.1.15,2013-07-04 00:35:00,
2013-07-03 17:40:00,89.3,57.3,29.77,WNW,294,3.0,3.0,34,0.00,,,0.00,Wunderground v.1.15,2013-07-04 00:40:00,
2013-07-03 17:45:00,89.1,57.1,29.77,West,269,2.0,3.0,34,0.00,,,0.00,Wunderground v.1.15,2013-07-04 00:45:00,
2013-07-03 17:50:00,89.1,57.1,29.77,WNW,296,1.0,1.0,34,0.00,,,0.00,Wunderground v.1.15,2013-07-04 00:50:00,
2013-07-03 18:00:00,88.6,56.6,29.77,WNW,294,1.0,3.0,34,0.00,,,0.00,Wunderground v.1.15,2013-07-04 01:00:00,
2013-07-03 18:05:00,87.7,56.7,29.77,WNW,299,2.0,3.0,35,0.00,,,0.00,Wunderground v.1.15,2013-07-04 01:05:00,
2013-07-03 18:10:00,87.1,56.1,29.77,NNW,336,2.0,3.0,35,0.00,,,0.00,Wunderground v.1.15,2013-07-04 01:10:00,
2013-07-03 18:15:00,86.9,56.7,29.77,NW,306,2.0,3.0,36,0.00,,,0.00,Wunderground v.1.15,2013-07-04 01:15:00,
2013-07-03 18:20:00,86.5,56.4,29.77,NW,309,2.0,2.0,36,0.00,,,0.00,Wunderground v.1.15,2013-07-04 01:20:00,
2013-07-03 18:40:00,86.1,56.8,29.77,WNW,286,1.0,1.0,37,0.00,,,0.00,Wunderground v.1.15,2013-07-04 01:40:00,
2013-07-03 18:45:00,86.3,57.7,29.77,WNW,287,0.0,1.0,38,0.00,,,0.00,Wunderground v.1.15,2013-07-04 01:45:00,
2013-07-03 18:55:00,86.3,57.0,29.77,NW,316,0.0,0.0,37,0.00,,,0.00,Wunderground v.1.15,2013-07-04 01:55:00,
2013-07-03 19:00:00,86.2,56.9,29.77,NW,315,0.0,0.0,37,0.00,,,0.00,Wunderground v.1.15,2013-07-04 02:00:00,
2013-07-03 19:05:00,85.5,57.0,29.77,NNW,335,0.0,1.0,38,0.00,,,0.00,Wunderground v.1.15,2013-07-04 02:05:00,
2013-07-03 19:15:00,84.1,56.5,29.77,WNW,290,0.0,1.0,39,0.00,,,0.00,Wunderground v.1.15,2013-07-04 02:15:00,
2013-07-03 19:20:00,83.3,56.5,29.77,NW,321,0.0,2.0,40,0.00,,,0.00,Wunderground v.1.15,2013-07-04 02:20:00,
2013-07-03 19:25:00,82.5,55.7,29.77,NW,317,0.0,2.0,40,0.00,,,0.00,Wunderground v.1.15,2013-07-04 02:25:00,
2013-07-03 19:30:00,82.1,56.1,29.76,WNW,302,0.0,1.0,41,0.00,,,0.00,Wunderground v.1.15,2013-07-04 02:30:00,
2013-07-03 19:35:00,81.7,56.4,29.76,WNW,302,0.0,1.0,42,0.00,,,0.00,Wunderground v.1.15,2013-07-04 02:35:00,
2013-07-03 19:40:00,81.5,55.5,29.76,WNW,302,0.0,0.0,41,0.00,,,0.00,Wunderground v.1.15,2013-07-04 02:40:00,
2013-07-03 19:45:00,81.3,55.3,29.76,WNW,302,0.0,0.0,41,0.00,,,0.00,Wunderground v.1.15,2013-07-04 02:45:00,
2013-07-03 19:55:00,81.0,54.4,29.76,NW,311,0.0,0.0,40,0.00,,,0.00,Wunderground v.1.15,2013-07-04 02:55:00,
2013-07-03 20:00:00,81.0,55.1,29.76,NW,321,0.0,0.0,41,0.00,,,0.00,Wunderground v.1.15,2013-07-04 03:00:00,
2013-07-03 20:05:00,80.9,55.0,29.76,SSW,209,0.0,0.0,41,0.00,,,0.00,Wunderground v.1.15,2013-07-04 03:05:00,
2013-07-03 20:10:00,80.7,55.5,29.76,SSW,212,0.0,0.0,42,0.00,,,0.00,Wunderground v.1.15,2013-07-04 03:10:00,
2013-07-03 20:15:00,80.6,55.4,29.76,SSW,212,0.0,0.0,42,0.00,,,0.00,Wunderground v.1.15,2013-07-04 03:15:00,
2013-07-03 20:20:00,80.4,55.9,29.76,SSW,212,0.0,0.0,43,0.00,,,0.00,Wunderground v.1.15,2013-07-04 03:20:00,
2013-07-03 20:30:00,80.1,56.2,29.76,West,265,0.0,0.0,44,0.00,,,0.00,Wunderground v.1.15,2013-07-04 03:30:00,
2013-07-03 20:35:00,80.0,56.1,29.76,WNW,282,0.0,0.0,44,0.00,,,0.00,Wunderground v.1.15,2013-07-04 03:35:00,
2013-07-03 20:45:00,79.8,55.9,29.76,WNW,282,0.0,0.0,44,0.00,,,0.00,Wunderground v.1.15,2013-07-04 03:45:00,
2013-07-03 20:55:00,79.3,56.1,29.76,WNW,282,0.0,0.0,45,0.00,,,0.00,Wunderground v.1.15,2013-07-04 03:55:00,
2013-07-03 21:00:00,79.0,55.8,29.76,WNW,282,0.0,0.0,45,0.00,,,0.00,Wunderground v.1.15,2013-07-04 04:00:00,
2013-07-03 21:05:00,78.7,55.6,29.76,WNW,282,0.0,0.0,45,0.00,,,0.00,Wunderground v.1.15,2013-07-04 04:05:00,
2013-07-03 21:10:00,78.4,55.3,29.76,WNW,282,0.0,0.0,45,0.00,,,0.00,Wunderground v.1.15,2013-07-04 04:10:00,
2013-07-03 21:15:00,78.1,55.6,29.76,WNW,282,0.0,0.0,46,0.00,,,0.00,Wunderground v.1.15,2013-07-04 04:15:00,
2013-07-03 21:20:00,77.8,56.0,29.76,WNW,282,0.0,0.0,47,0.00,,,0.00,Wunderground v.1.15,2013-07-04 04:20:00,
2013-07-03 21:30:00,77.5,55.1,29.76,WNW,298,0.0,0.0,46,0.00,,,0.00,Wunderground v.1.15,2013-07-04 04:30:00,
2013-07-03 21:35:00,77.5,55.1,29.77,WNW,298,0.0,0.0,46,0.00,,,0.00,Wunderground v.1.15,2013-07-04 04:35:00,
2013-07-03 21:40:00,77.3,55.5,29.77,NW,308,0.0,0.0,47,0.00,,,0.00,Wunderground v.1.15,2013-07-04 04:40:00,
2013-07-03 21:45:00,77.1,55.9,29.77,ENE,62,0.0,0.0,48,0.00,,,0.00,Wunderground v.1.15,2013-07-04 04:45:00,
2013-07-03 21:55:00,76.6,56.0,29.77,ENE,62,0.0,0.0,49,0.00,,,0.00,Wunderground v.1.15,2013-07-04 04:55:00,
2013-07-03 22:00:00,76.3,56.3,29.77,ENE,62,0.0,0.0,50,0.00,,,0.00,Wunderground v.1.15,2013-07-04 05:00:00,
2013-07-03 22:05:00,76.1,56.7,29.77,ENE,62,0.0,0.0,51,0.00,,,0.00,Wunderground v.1.15,2013-07-04 05:05:00,
2013-07-03 22:15:00,75.4,56.5,29.77,ENE,62,0.0,0.0,52,0.00,,,0.00,Wunderground v.1.15,2013-07-04 05:15:00,
2013-07-03 22:20:00,75.0,56.7,29.77,ENE,62,0.0,0.0,53,0.00,,,0.00,Wunderground v.1.15,2013-07-04 05:20:00,
2013-07-03 22:30:00,74.3,56.6,29.77,ENE,62,0.0,0.0,54,0.00,,,0.00,Wunderground v.1.15,2013-07-04 05:30:00,
2013-07-03 22:35:00,73.8,56.6,29.77,ENE,62,0.0,0.0,55,0.00,,,0.00,Wunderground v.1.15,2013-07-04 05:35:00,
2013-07-03 22:40:00,73.4,56.7,29.77,ENE,62,0.0,0.0,56,0.00,,,0.00,Wunderground v.1.15,2013-07-04 05:40:00,
2013-07-03 22:45:00,73.2,56.6,29.77,ENE,62,0.0,0.0,56,0.00,,,0.00,Wunderground v.1.15,2013-07-04 05:45:00,
2013-07-03 22:50:00,73.0,55.9,29.77,ENE,62,0.0,0.0,55,0.00,,,0.00,Wunderground v.1.15,2013-07-04 05:50:00,
2013-07-03 23:00:00,73.0,55.4,29.77,ENE,62,0.0,0.0,54,0.00,,,0.00,Wunderground v.1.15,2013-07-04 06:00:00,
2013-07-03 23:05:00,73.1,56.0,29.77,ENE,62,0.0,0.0,55,0.00,,,0.00,Wunderground v.1.15,2013-07-04 06:05:00,
2013-07-03 23:10:00,73.1,56.0,29.77,ENE,62,0.0,0.0,55,0.00,,,0.00,Wunderground v.1.15,2013-07-04 06:10:00,
2013-07-03 23:15:00,72.9,55.8,29.77,ENE,62,0.0,0.0,55,0.00,,,0.00,Wunderground v.1.15,2013-07-04 06:15:00,
2013-07-03 23:25:00,72.5,55.9,29.77,ENE,62,0.0,0.0,56,0.00,,,0.00,Wunderground v.1.15,2013-07-04 06:25:00,
2013-07-03 23:30:00,72.2,55.6,29.77,ENE,62,0.0,0.0,56,0.00,,,0.00,Wunderground v.1.15,2013-07-04 06:30:00,
2013-07-03 23:40:00,72.2,55.6,29.77,ENE,62,0.0,0.0,56,0.00,,,0.00,Wunderground v.1.15,2013-07-04 06:40:00,
2013-07-03 23:45:00,72.2,55.6,29.77,ENE,62,0.0,0.0,56,0.00,,,0.00,Wunderground v.1.15,2013-07-04 06:45:00,
2013-07-03 23:50:00,72.1,56.0,29.77,ENE,62,0.0,0.0,57,0.00,,,0.00,Wunderground v.1.15,2013-07-04 06:50:00,